QTR3943 EHAM-OTHH

Flight info

Callsign QTR3943
Flight time N/A
Altitude 35000
Route EDUPO Z739 MISGO DCT DOJOH DCT DODEN DCT NEGIX DCT DINKU M867 XERUM DCT BAVAX DCT RADIZ DCT VRANA DCT DIMIS UL604 SALUN N705 MMA/N0489F370 P751 DASUM Y234 FYM M872 BDB Y214 RAPMA/N0521F290 Y214 ASPUS Y432 LADBO T142 LAEEB
Aircraft B77W/H-SDE1E2E3FGHIJ2J3J4J5M1RWXY/LB1D1

Departure

Time 2026-04-28 22:04
Airport Amsterdam Airport Schiphol (EHAM)

Arrival

Time N/A
Airport Hamad International Airport (OTHH)
Time Latitude Longitude Altitude Speed Heading
2026-04-28 21:26 52.31219 4.75589 4 ft 0 kts 86°
2026-04-28 21:49 52.31219 4.75585 4 ft 2 kts 86°
2026-04-28 21:49 52.31218 4.75542 5 ft 4 kts 86°
2026-04-28 21:49 52.31215 4.75500 6 ft 4 kts 75°
2026-04-28 21:49 52.31208 4.75469 5 ft 4 kts 40°
2026-04-28 21:50 52.31204 4.75462 5 ft 1 kts 356°
2026-04-28 21:50 52.31215 4.75461 4 ft 4 kts 356°
2026-04-28 21:50 52.31242 4.75458 4 ft 4 kts 356°
2026-04-28 21:50 52.31269 4.75455 4 ft 4 kts 356°
2026-04-28 21:51 52.31288 4.75454 4 ft 0 kts 356°
2026-04-28 21:54 52.31311 4.75451 4 ft 12 kts 356°
2026-04-28 21:54 52.31433 4.75441 4 ft 8 kts 357°
2026-04-28 21:54 52.31485 4.75419 4 ft 8 kts 327°
2026-04-28 21:55 52.31506 4.75337 4 ft 8 kts 278°
2026-04-28 21:55 52.31505 4.75239 3 ft 9 kts 266°
2026-04-28 21:55 52.31501 4.75126 4 ft 12 kts 266°
2026-04-28 21:55 52.31495 4.74949 4 ft 19 kts 267°
2026-04-28 21:56 52.31487 4.74721 4 ft 21 kts 266°
2026-04-28 21:56 52.31479 4.74483 4 ft 21 kts 266°
2026-04-28 21:56 52.31476 4.74368 4 ft 7 kts 275°
2026-04-28 21:56 52.31505 4.74308 4 ft 7 kts 331°
2026-04-28 21:57 52.31563 4.74300 4 ft 11 kts
2026-04-28 21:57 52.31658 4.74309 4 ft 17 kts
2026-04-28 21:57 52.31781 4.74321 4 ft 18 kts
2026-04-28 21:57 52.31904 4.74331 4 ft 18 kts
2026-04-28 21:58 52.32007 4.74332 4 ft 7 kts 340°
2026-04-28 21:58 52.32026 4.74256 4 ft 8 kts 277°
2026-04-28 21:58 52.32033 4.74134 4 ft 14 kts 272°
2026-04-28 21:58 52.32039 4.73972 3 ft 16 kts 274°
2026-04-28 21:59 52.32046 4.73773 4 ft 19 kts 273°
2026-04-28 21:59 52.32055 4.73522 4 ft 25 kts 276°
2026-04-28 21:59 52.32142 4.73280 4 ft 26 kts 320°
2026-04-28 22:00 52.32412 4.72902 4 ft 26 kts 319°
2026-04-28 22:00 52.32547 4.72714 4 ft 26 kts 320°
2026-04-28 22:00 52.32679 4.72521 4 ft 26 kts 315°
2026-04-28 22:00 52.32795 4.72306 4 ft 26 kts 311°
2026-04-28 22:01 52.32914 4.72086 4 ft 26 kts 311°
2026-04-28 22:01 52.32987 4.71876 4 ft 21 kts 274°
2026-04-28 22:01 52.32996 4.71692 4 ft 13 kts 294°
2026-04-28 22:01 52.33050 4.71578 4 ft 13 kts 310°
2026-04-28 22:02 52.33089 4.71472 4 ft 9 kts 270°
2026-04-28 22:02 52.33049 4.71384 4 ft 11 kts 225°
2026-04-28 22:02 52.32982 4.71283 4 ft 15 kts 222°
2026-04-28 22:02 52.32897 4.71159 4 ft 13 kts 226°
2026-04-28 22:03 52.32863 4.70998 3 ft 14 kts 270°
2026-04-28 22:03 52.32866 4.70931 3 ft 7 kts 285°
2026-04-28 22:03 52.32912 4.70896 -25 ft 9 kts
2026-04-28 22:03 52.33008 4.70906 1 ft 26 kts
2026-04-28 22:04 52.33449 4.70946 3 ft 100 kts
2026-04-28 22:04 52.34370 4.71038 3 ft 162 kts
2026-04-28 22:04 52.35527 4.71180 504 ft 167 kts
2026-04-28 22:04 52.36692 4.71306 1209 ft 169 kts 13°
2026-04-28 22:05 52.37889 4.71423 1866 ft 177 kts 13°
2026-04-28 22:05 52.39188 4.71550 2204 ft 198 kts 13°
2026-04-28 22:05 52.40663 4.71685 2448 ft 226 kts 11°
2026-04-28 22:05 52.42323 4.71824 2792 ft 248 kts
2026-04-28 22:06 52.44076 4.71962 3503 ft 256 kts
2026-04-28 22:06 52.45870 4.72105 4350 ft 257 kts
2026-04-28 22:06 52.47653 4.72250 5307 ft 257 kts
2026-04-28 22:06 52.49454 4.72402 5895 ft 261 kts
2026-04-28 22:07 52.51257 4.72650 6291 ft 259 kts 17°
2026-04-28 22:07 52.52819 4.74020 6747 ft 257 kts 46°
2026-04-28 22:07 52.53824 4.76398 7519 ft 256 kts 66°
2026-04-28 22:07 52.54291 4.79211 8210 ft 260 kts 87°
2026-04-28 22:08 52.54214 4.82207 8786 ft 266 kts 95°
2026-04-28 22:08 52.53640 4.85100 9427 ft 273 kts 120°
2026-04-28 22:08 52.52353 4.87419 10200 ft 280 kts 138°
2026-04-28 22:08 52.50753 4.89350 10705 ft 292 kts 141°
2026-04-28 22:09 52.49018 4.91347 10908 ft 317 kts 142°
2026-04-28 22:09 52.47135 4.93496 11086 ft 342 kts 142°
2026-04-28 22:09 52.45144 4.95770 11363 ft 363 kts 142°
2026-04-28 22:09 52.43014 4.98211 12027 ft 373 kts 142°
2026-04-28 22:10 52.40896 5.00647 12857 ft 380 kts 142°
2026-04-28 22:10 52.38722 5.03157 13789 ft 386 kts 142°
2026-04-28 22:10 52.36515 5.05708 14647 ft 391 kts 142°
2026-04-28 22:10 52.34284 5.08285 15511 ft 395 kts 142°
2026-04-28 22:11 52.32166 5.11129 16254 ft 396 kts 132°
2026-04-28 22:11 52.30321 5.14505 17007 ft 401 kts 127°
2026-04-28 22:11 52.28540 5.18034 17860 ft 405 kts 127°
2026-04-28 22:11 52.26697 5.21543 18711 ft 409 kts 128°
2026-04-28 22:12 52.24795 5.25032 19434 ft 414 kts 129°
2026-04-28 22:12 52.22945 5.28649 20151 ft 416 kts 123°
2026-04-28 22:12 52.21263 5.32498 20891 ft 418 kts 121°
2026-04-28 22:12 52.19626 5.36444 21606 ft 422 kts 120°
2026-04-28 22:13 52.17971 5.40419 22316 ft 426 kts 120°
2026-04-28 22:13 52.16274 5.44412 23000 ft 430 kts 121°
2026-04-28 22:13 52.14542 5.48415 23675 ft 435 kts 121°
2026-04-28 22:13 52.12782 5.52443 24254 ft 439 kts 121°
2026-04-28 22:14 52.11003 5.56501 24812 ft 442 kts 121°
2026-04-28 22:14 52.09209 5.60589 25362 ft 446 kts 121°
2026-04-28 22:14 52.07402 5.64703 25900 ft 449 kts 121°
2026-04-28 22:14 52.05566 5.68833 26407 ft 453 kts 123°
2026-04-28 22:15 52.03536 5.72795 26911 ft 459 kts 127°
2026-04-28 22:15 52.01382 5.76659 27409 ft 463 kts 128°
2026-04-28 22:15 51.99225 5.80564 27881 ft 466 kts 127°
2026-04-28 22:15 51.97082 5.84537 28350 ft 469 kts 127°
2026-04-28 22:16 51.94937 5.88544 28807 ft 472 kts 127°
2026-04-28 22:16 51.92777 5.92575 29234 ft 475 kts 127°
2026-04-28 22:16 51.90603 5.96623 29632 ft 478 kts 127°
2026-04-28 22:16 51.88411 6.00694 30016 ft 481 kts 128°
2026-04-28 22:17 51.86208 6.04775 30374 ft 483 kts 128°
2026-04-28 22:17 51.83987 6.08869 30755 ft 483 kts 128°
2026-04-28 22:17 51.81765 6.12935 31192 ft 482 kts 128°
2026-04-28 22:17 51.79549 6.16979 31653 ft 480 kts 128°
2026-04-28 22:18 51.77336 6.21017 32078 ft 479 kts 128°
2026-04-28 22:18 51.75130 6.25043 32476 ft 479 kts 129°
2026-04-28 22:18 51.72928 6.29063 32879 ft 478 kts 129°
2026-04-28 22:18 51.70730 6.33073 33275 ft 477 kts 129°
2026-04-28 22:19 51.68534 6.37075 33669 ft 476 kts 129°
2026-04-28 22:19 51.66341 6.41066 34045 ft 476 kts 129°
2026-04-28 22:19 51.64146 6.45052 34385 ft 476 kts 129°
2026-04-28 22:19 51.61978 6.48980 34633 ft 476 kts 129°
2026-04-28 22:20 51.59772 6.52970 34851 ft 478 kts 129°
2026-04-28 22:20 51.57563 6.56960 35081 ft 479 kts 129°
2026-04-28 22:20 51.55342 6.60968 35188 ft 482 kts 130°
2026-04-28 22:21 51.50834 6.69084 35269 ft 483 kts 130°
2026-04-28 22:21 51.46406 6.77031 35269 ft 479 kts 130°
2026-04-28 22:22 51.41971 6.84972 35270 ft 478 kts 130°
2026-04-28 22:22 51.37345 6.92624 35255 ft 479 kts 134°
2026-04-28 22:23 51.32544 7.00013 35271 ft 480 kts 134°
2026-04-28 22:23 51.27720 7.07419 35273 ft 482 kts 134°
2026-04-28 22:24 51.22888 7.14860 35269 ft 484 kts 134°
2026-04-28 22:24 51.18031 7.22333 35259 ft 486 kts 134°
2026-04-28 22:25 51.13155 7.29812 35240 ft 488 kts 135°
2026-04-28 22:25 51.08256 7.37301 35244 ft 489 kts 135°
2026-04-28 22:26 51.03332 7.44805 35242 ft 490 kts 135°
2026-04-28 22:26 50.98403 7.52292 35243 ft 491 kts 135°
2026-04-28 22:27 50.93453 7.59790 35238 ft 492 kts 135°
2026-04-28 22:27 50.88498 7.67274 35236 ft 493 kts 136°
2026-04-28 22:28 50.84364 7.73501 35237 ft 494 kts 136°
2026-04-28 22:28 50.79363 7.80971 35237 ft 495 kts 136°
2026-04-28 22:29 50.74336 7.88421 35237 ft 496 kts 137°
2026-04-28 22:29 50.68480 7.97089 35241 ft 497 kts 137°
2026-04-28 22:30 50.64247 8.03341 35241 ft 498 kts 137°
2026-04-28 22:30 50.59288 8.10963 35238 ft 500 kts 131°
2026-04-28 22:31 50.54928 8.19517 35245 ft 501 kts 128°
2026-04-28 22:31 50.50612 8.28150 35242 ft 503 kts 129°
2026-04-28 22:32 50.46239 8.36751 35242 ft 505 kts 129°
2026-04-28 22:32 50.41825 8.45363 35237 ft 507 kts 129°
2026-04-28 22:33 50.37372 8.53967 35230 ft 509 kts 132°
2026-04-28 22:33 50.32566 8.62116 35237 ft 510 kts 134°
2026-04-28 22:34 50.27677 8.70198 35224 ft 512 kts 135°
2026-04-28 22:34 50.22775 8.78319 35227 ft 514 kts 135°
2026-04-28 22:35 50.17897 8.86420 35222 ft 516 kts 135°
2026-04-28 22:35 50.12971 8.94588 35218 ft 518 kts 135°
2026-04-28 22:36 50.08025 9.02761 35219 ft 519 kts 135°
2026-04-28 22:36 50.06449 9.05360 35217 ft 519 kts 135°